Probability
16 18 21 25 25 22 20 19 14 7 5 5 5 4 3 3 2 1 1 2 2 3 4 5 5 4 4 4 4 5 6 6 4 4 3 2 1 0 0 1 3 4 4
20 22 23 25 25 23 22 20 15 9 6 5 5 4 3 3 3 2 2 2 3 3 4 6 6 5 4 5 6 6 6 6 5 4 5 4 3 1 1 1 3 5 5
23 25 25 24 23 23 23 21 16 11 7 6 6 5 5 4 4 3 2 2 3 2 3 6 8 7 6 6 6 6 6 6 6 6 6 6 5 4 3 2 3 5 6
21 24 24 22 22 23 23 20 15 11 8 8 8 7 6 5 4 3 2 1 2 3 3 4 7 7 6 6 6 6 6 6 6 6 6 6 6 6 5 4 4 5 6
20 21 22 22 21 22 21 17 13 11 9 8 9 8 6 5 4 4 3 2 4 5 5 5 5 6 6 6 7 7 7 7 7 7 7 6 6 6 6 6 5 5 5
21 20 20 20 20 20 19 15 13 11 9 8 8 7 5 5 5 5 5 4 5 8 7 6 6 6 6 6 7 7 7 8 9 8 8 7 7 7 7 6 6 5 5
24 22 20 19 20 20 18 16 14 11 9 7 7 6 6 6 5 5 5 5 6 7 7 7 7 7 7 7 7 7 7 8 9 9 8 8 8 8 7 6 6 6 6
26 23 21 21 22 22 19 17 14 12 10 9 8 7 7 6 5 6 6 6 7 7 7 8 8 8 8 9 8 7 7 7 7 6 7 7 7 7 7 7 6 7 7
27 25 24 23 25 26 22 17 14 12 11 11 10 9 8 6 6 7 7 8 8 8 8 8 8 8 8 8 8 6 5 5 4 4 4 5 6 6 7 7 6 7 7
27 28 26 25 26 28 25 19 15 15 14 14 13 12 9 8 7 7 7 7 7 6 7 7 8 7 5 4 4 4 4 4 4 5 4 5 5 6 6 6 6 6 6
26 27 27 26 27 29 28 22 17 17 17 16 15 12 10 9 8 7 6 5 4 4 5 6 6 5 3 2 2 3 4 6 7 8 7 6 6 5 5 5 5 4 4
22 24 26 27 29 31 31 26 21 20 18 15 14 13 11 11 10 9 7 5 5 4 5 6 6 5 3 2 3 4 6 8 8 8 7 7 6 4 3 3 4 3 3
18 20 23 26 29 32 32 29 25 21 17 14 13 12 11 11 11 10 9 8 7 7 7 7 6 6 4 3 4 5 6 6 5 4 3 4 4 3 2 2 3 3 3
18 19 21 24 26 27 29 29 26 21 15 12 11 10 9 10 10 10 10 11 10 9 8 8 7 6 5 4 3 4 3 2 1 0 1 2 2 1 1 3 4 4 3
20 20 21 21 22 23 24 25 24 19 14 11 10 9 8 9 8 8 9 11 12 10 9 7 6 5 4 3 2 2 1 0 0 0 0 1 1 0 1 2 3 3 3
21 22 23 22 21 22 22 22 22 19 16 14 12 11 11 10 9 8 8 9 10 10 8 6 3 2 1 1 1 1 0 0 0 0 0 0 0 0 0 1 2 2 1
22 25 26 24 22 23 22 22 23 24 23 20 16 15 14 13 12 10 9 9 9 9 7 4 2 1 0 0 0 0 0 0 1 1 0 0 0 0 0 0 1 1 0
23 25 26 24 22 23 22 22 23 26 27 25 21 19 18 17 15 13 11 10 10 8 6 4 3 2 1 1 0 0 0 0 1 1 0 0 0 0 0 0 0 0 0
22 22 23 22 20 19 19 19 20 23 25 25 23 22 21 20 18 15 13 12 11 10 8 5 4 3 3 2 1 0 0 0 0 0 0 0 0 0 0 0 0 0 0
17 19 20 19 17 15 14 14 15 16 19 21 22 21 20 20 20 18 15 14 13 11 10 7 5 3 3 3 1 0 1 1 1 0 0 0 0 0 0 1 1 1 1
15 16 16 14 12 11 11 11 10 11 14 17 18 18 17 18 20 20 17 15 14 13 12 9 6 4 4 4 3 1 1 2 2 1 1 0 0 0 0 1 2 2 2
15 15 14 11 8 8 11 10 7 7 11 14 16 16 16 17 18 18 16 15 14 12 11 10 7 6 6 5 3 1 1 2 3 3 2 1 0 0 0 0 1 1 1
15 15 13 10 8 8 9 9 7 7 8 10 14 15 14 15 15 14 13 13 12 11 10 10 8 8 8 6 3 1 0 1 2 3 3 1 0 0 0 0 0 0 0
16 15 14 10 8 7 7 7 8 8 7 8 11 13 12 12 12 11 11 11 10 10 9 9 9 9 8 7 5 2 1 1 1 1 1 0 0 0 0 0 0 0 0
15 14 12 8 5 6 7 8 9 9 8 8 9 10 10 9 9 10 10 10 9 9 8 8 9 9 9 8 5 3 2 1 0 0 0 0 0 0 0 0 0 0 0
14 12 9 6 4 6 9 9 11 11 10 8 8 8 9 8 9 10 10 9 9 9 7 6 7 9 10 8 4 2 1 1 0 0 0 0 0 0 0 0 0 0 0
Wind_Speed
8 9 10 11 10 8 8 7 6 5 4 3 3 2 2 1 1 1 2 2 2 3 3 2 1 1 1 1 1 1 1 1 0 1 2 2 1 1 1 1 1 2 3
8 9 9 9 9 9 8 7 6 5 5 3 3 2 2 2 1 1 1 2 2 3 3 3 2 2 2 1 1 1 1 0 1 1 1 2 3 3 1 0 1 1 1
13 11 10 9 9 9 8 7 6 5 5 4 3 2 2 2 1 1 0 1 2 2 2 2 2 2 2 2 1 2 2 1 1 1 2 2 2 2 2 1 0 0 1
11 11 11 10 10 9 8 7 6 5 5 5 4 5 4 3 2 2 1 1 1 1 2 2 2 2 1 1 1 1 1 2 0 1 0 2 3 1 1 2 1 1 1
12 12 12 11 10 9 8 7 6 5 5 5 5 5 3 2 2 2 2 1 0 1 1 2 2 1 1 1 1 1 1 1 1 0 0 0 0 1 2 2 2 2 2
11 11 10 9 9 8 8 7 6 5 5 5 5 5 5 4 3 2 2 1 0 0 1 1 1 1 1 1 1 1 1 1 1 0 0 1 1 1 1 2 2 2 2
11 10 11 10 10 10 9 8 7 6 5 5 5 5 5 5 5 4 3 2 1 0 0 1 1 1 1 1 1 1 1 1 1 1 1 1 1 1 2 2 1 1 2
10 10 11 11 11 11 10 9 8 6 5 5 5 4 4 3 3 3 3 3 2 2 1 1 1 1 1 1 1 1 0 1 0 0 0 0 1 1 1 2 2 1 2
10 10 10 10 10 10 10 10 9 7 6 6 5 4 4 4 3 3 3 2 2 2 2 1 1 1 1 1 1 1 0 1 1 1 0 0 1 1 1 1 2 2 1
8 8 8 9 9 10 9 9 9 8 7 6 5 5 4 4 4 3 3 3 2 2 2 1 1 1 1 1 1 1 0 1 1 0 1 1 1 1 1 1 1 2 3
9 8 8 8 9 8 8 8 8 7 6 6 5 4 4 4 3 3 3 3 2 2 2 2 2 1 1 1 1 0 0 0 1 1 1 1 1 1 1 1 0 0 1
8 8 7 8 7 8 8 8 7 7 7 6 5 5 4 4 3 3 3 3 3 3 3 2 2 2 1 1 1 1 0 0 1 1 1 1 1 1 2 1 1 1 1
7 7 6 6 7 7 8 7 7 7 6 6 5 4 4 4 3 3 2 2 2 2 2 2 2 1 1 1 1 1 1 1 1 1 0 1 1 1 1 1 1 1 0
8 7 6 5 5 5 6 7 6 6 6 6 5 5 4 4 4 3 3 3 2 2 2 2 2 1 1 1 1 1 1 1 1 1 1 0 0 1 1 1 1 0 1
7 8 7 6 6 5 4 5 6 6 6 6 5 5 5 4 3 3 3 2 2 3 2 2 1 1 1 1 2 2 1 1 0 1 1 1 0 0 0 0 0 0 0
7 7 7 7 7 6 5 4 4 5 6 5 5 4 4 3 3 3 3 2 2 2 2 2 2 2 2 2 2 2 1 1 1 1 1 1 1 2 1 1 0 1 1
8 8 6 5 5 5 5 5 4 4 5 5 4 4 4 4 4 3 3 3 3 3 2 2 2 2 3 3 3 3 2 2 2 2 1 1 1 1 1 1 2 2 0
7 7 6 5 3 4 4 4 4 4 4 4 4 4 4 4 3 3 3 3 3 3 3 3 3 3 3 3 3 3 2 2 2 2 2 2 2 1 0 0 1 1 2
7 6 6 6 5 5 4 4 3 3 2 3 4 4 4 4 4 4 4 3 3 3 3 3 4 4 4 4 3 3 2 1 2 2 2 2 2 2 1 1 0 2 3
5 5 5 5 5 4 5 5 3 3 3 3 3 4 4 4 5 5 4 3 3 4 3 3 3 4 4 4 4 4 2 2 2 2 2 3 3 3 3 2 2 1 3
5 5 6 5 4 4 5 4 2 3 4 3 2 3 3 4 4 4 4 4 3 3 3 3 3 4 5 5 5 6 4 4 3 2 2 3 4 4 4 4 3 4 3
4 4 4 4 3 4 5 4 3 3 2 2 2 2 3 3 3 3 3 3 3 4 3 3 3 3 4 4 5 6 7 5 4 4 3 4 5 5 5 4 5 5 3
3 3 4 4 3 3 5 5 4 3 2 2 2 2 2 2 2 3 3 3 3 3 4 4 4 3 3 3 4 5 6 6 4 3 4 5 6 5 4 5 5 4 2
2 2 3 3 3 3 3 4 4 3 3 3 2 2 1 2 2 2 3 3 3 3 4 4 4 3 3 3 2 2 2 3 2 2 3 4 4 4 4 3 3 2 2
2 2 2 3 3 3 2 3 3 3 3 2 2 2 1 2 1 1 2 3 4 5 6 5 5 5 5 6 7 4 3 3 2 1 1 1 1 2 2 2 2 2 1
2 1 2 2 2 2 2 2 2 3 3 2 2 2 2 2 2 2 2 3 3 5 7 7 6 6 7 7 6 6 6 5 4 3 1 2 2 3 3 3 3 2 3
Wind_Direction
168 158 157 154 147 146 145 149 146 150 144 138 140 141 150 146 138 162 164 162 160 157 156 170 179 169 162 189 199 144 91 345 65 57 359 348 341 324 254 214 181 198 203
157 160 158 157 154 154 154 153 156 157 158 160 158 152 152 159 154 146 134 150 154 164 168 169 181 174 162 161 157 131 112 326 96 124 85 4 347 334 319 270 184 210 202
166 163 162 162 159 160 162 161 163 161 163 155 132 116 93 80 77 79 119 167 153 157 166 166 170 167 159 168 177 159 143 168 324 128 138 142 236 301 325 329 7 205 186
165 164 165 165 165 166 161 159 159 160 161 155 148 148 151 159 179 175 171 175 159 158 157 154 153 157 156 156 176 149 146 142 214 315 139 171 170 167 309 326 323 260 231
169 168 167 167 167 165 162 161 154 157 159 156 157 152 156 161 150 137 133 134 103 131 140 129 136 146 153 148 133 119 125 142 162 173 314 25 62 146 162 279 315 328 295
173 169 166 163 162 163 159 156 155 162 162 159 156 158 159 152 139 135 141 150 135 99 108 114 128 144 145 151 161 138 123 131 131 135 160 179 188 207 175 216 267 282 288
167 165 163 166 167 165 163 161 161 167 168 164 162 162 159 153 157 160 162 157 154 152 164 118 129 140 148 148 127 105 96 102 118 161 217 223 220 199 181 178 237 271 290
162 163 166 169 169 168 165 164 167 170 169 166 165 161 157 157 162 161 157 167 179 181 166 147 136 125 121 113 110 103 116 71 66 313 255 293 269 212 187 180 175 289 317
162 163 166 167 167 167 170 170 169 170 173 171 162 160 162 159 158 154 150 158 166 160 149 147 133 126 115 114 116 101 50 44 8 322 318 306 293 285 247 193 170 166 237
157 160 162 168 167 168 167 168 169 171 172 166 164 162 160 159 154 147 153 159 161 152 150 151 139 134 125 108 110 110 68 58 340 316 6 351 314 329 320 254 209 170 179
163 165 169 169 166 159 162 165 168 163 162 164 161 158 159 156 148 152 162 161 165 166 169 174 154 150 156 159 118 172 121 58 330 336 8 335 336 342 325 338 324 230 170
159 159 162 158 157 162 163 165 165 164 168 166 160 160 157 148 147 160 180 175 173 175 182 175 157 169 181 200 174 197 211 185 293 311 5 346 6 1 344 359 343 292 203
138 142 143 151 158 165 165 167 169 168 163 157 156 158 159 158 167 174 179 179 175 172 172 156 161 173 180 184 200 195 204 216 228 223 185 293 45 355 333 347 338 318 345
136 137 138 138 139 146 161 161 161 157 155 153 159 166 174 177 179 177 179 183 175 166 163 153 162 181 192 194 204 196 186 209 243 221 204 211 142 250 285 324 311 334 45
137 146 148 143 139 136 138 147 151 154 157 157 168 180 181 178 175 173 180 180 178 173 162 161 175 199 205 223 209 197 177 180 261 295 270 216 237 276 266 322 227 87 70
147 150 144 141 146 153 157 148 148 156 151 158 176 183 177 170 174 179 178 178 191 182 169 173 182 200 232 230 197 175 175 181 206 266 287 280 314 332 354 2 105 144 168
148 151 150 150 160 167 157 151 156 150 144 158 175 180 180 178 183 181 176 190 198 185 191 196 185 205 238 230 210 189 177 188 210 227 249 283 310 351 334 359 18 350 288
137 140 140 139 148 146 145 144 138 141 154 167 180 183 175 176 182 182 194 202 195 192 201 204 199 208 237 231 223 206 189 191 223 231 228 232 264 271 167 122 357 326 312
142 143 146 141 135 130 133 136 133 141 148 171 178 180 177 178 190 201 206 204 191 202 209 204 198 206 235 229 214 197 176 191 250 259 252 224 229 263 190 148 257 316 308
133 138 133 120 125 134 133 132 152 158 183 200 194 187 179 184 198 205 206 201 193 201 206 213 211 213 226 225 213 190 174 194 243 266 260 238 228 241 201 180 186 254 280
134 130 127 129 145 142 130 132 161 196 206 203 186 187 190 197 207 208 206 199 194 193 203 212 223 224 227 224 213 194 184 194 209 233 247 246 237 236 223 208 212 233 246
129 135 137 143 152 149 141 150 191 214 198 178 183 207 216 216 209 200 213 200 192 194 210 216 233 242 238 229 223 207 202 196 197 221 233 239 236 236 234 230 243 247 251
142 146 149 152 159 167 161 167 198 191 178 182 208 231 239 229 205 195 204 197 195 207 215 213 224 241 243 236 227 209 205 204 203 224 234 244 244 240 243 249 250 244 231
136 124 131 165 191 192 186 190 198 186 171 188 213 226 223 247 245 222 200 196 206 213 221 224 225 232 233 227 221 215 210 211 226 255 268 268 261 251 248 263 256 235 224
146 154 170 196 211 207 206 206 188 163 165 192 210 220 224 226 242 242 230 213 215 207 207 217 212 210 226 229 208 195 202 200 207 204 306 307 292 271 265 264 253 243 240
145 156 173 182 197 193 206 228 191 164 166 192 219 227 229 228 226 230 278 279 249 246 231 224 216 220 221 215 205 203 208 206 177 157 213 239 244 244 244 240 243 238 234